Regional Weather Roundup
Issued by NWS

Home | Current Version | Previous Version | Text Only | Print | Product List | Glossary On
Versions: 1 2 3 4 5 6 7 8 9 10 11 12 13 14 15 16 17 18 19 20 21 22 23 24 25 26 27 28 29 30 31 32 33 34 35 36 37 38 39 40 41 42 43 44 45 46 47 48 49 50
000
ASUS42 KKEY 252210
RWRKEY

FLORIDA REGIONAL WEATHER ROUNDUP FOR THE FLORIDA KEYS
NATIONAL WEATHER SERVICE KEY WEST FLORIDA
600 PM EDT MON MAY 25 2015

...SOUTH FLORIDA AND THE KEYS...

CITY           SKY/WX    TMP DP  RH WIND       PRES   REMARKS
FORT MYERS     CLOUDY    81  73  76 SW7       30.09R
SW REGIONAL AP CLOUDY    82  72  71 SW10      30.10R
NAPLES         PTSUNNY   80  76  87 CALM      30.09S
MIAMI          MOSUNNY   86  68  54 E16       30.12F
WEST KENDALL   MOSUNNY   86  72  62 E17       30.12S HX  92
HOMESTEAD      NOT AVBL
MARATHON       MOSUNNY   86  75  69 E12G20    30.09F HX  95
BOCA CHICA NAS MOSUNNY   84  74  71 E21       30.07F HX  91
KEY WEST INTL  MOSUNNY   84  76  76 E16G25    30.08F HX  93

...INTERNATIONAL WEATHER...

CITY           SKY/WX    TMP DP  RH WIND       PRES   REMARKS
NASSAU BAHAMAS MOSUNNY   82  72  69 E12       30.14S
CANCUN MEXICO  MOSUNNY   86  75  70 E14       29.98F HX  95
COZUMEL MEXICO MOSUNNY   84  72  65 E14       29.97F

ADJACENT COASTAL WATERS...

STATION/POSITION TIME  SKY/WX   TEMP    WIND        PRES    WAVE
                                AIR SEA DIR/SP/G            HT/PER
                 (UTC)          (F)     (DEG/KT/KT) (MB)    (FT/S)
PULASKI SHOAL LI 2100            83     120/ 20/ 22 1018.2F
SAND KEY         2150            81     100/ 18/ 21 1018.2F
SOMBRERO KEY     2200            83     100/ 18/ 20 1019.6F
LONG KEY         2100            83 85  110/ 16/ 18 1020.1F
MOLASSES REEF    2200            81 83   80/ 11/ 13 1019.5S
FOWEY ROCKS      NOT AVBL

$$


USA.gov is the U.S. government's official web portal to all federal, state and local government web resources and services.